Plattsburgh, NY

8:32 PM EST on December 06, 2019 (GMT -0500)
Plattsburgh International

Weather History for KPBG - October, 2019

Change the Weather History Date:

Monday, October 7, 2019

  Actual Average Record
Temperature  
Mean Temperature 56 °F 50 °F  
Max Temperature 59 °F 60 °F 87 °F (1963)
Min Temperature 52 °F 41 °F 26 °F (1964)
Degree Days  
Heating Degree Days 10 15  
Month to date heating degree days 99 94  
Since 1 July heating degree days 291 329  
Cooling Degree Days 0 0  
Month to date cooling degree days 0 0  
Year to date cooling degree days 406 345  
Growing Degree Days 6 (Base 50)    
Moisture  
Dew Point 54 °F    
Average Humidity 94    
Maximum Humidity 97    
Minimum Humidity 89    
Precipitation  
Precipitation 0.62 in - 1.31 in (1959)
Month to date precipitation 1.38 0.00  
Year to date precipitation 23.00  
Sea Level Pressure  
Sea Level Pressure 30.07 in    
Wind  
Wind Speed 2 mph ()    
Max Wind Speed 10 mph    
Max Gust Speed 12 mph    
Visibility 6.8 miles    
Events Rain    
T = Trace of Precipitation, MM = Missing Value Source: Averaged Metar Reports

Daily Weather History Graph

Daily Weather History Graph

Search for Another Location

Airport or City:

Astronomy

Oct. 07, 2019 Rise Set
Actual Time 6:58 AM EDT 6:23 PM EDT
Civil Twilight 6:29 AM EDT 6:53 PM EDT
Nautical Twilight 5:55 AM EDT 7:26 PM EDT
Astronomical Twilight 5:21 AM EDT 8:00 PM EDT
Moon 4:00 PM EDT 12:31 AM EDT
Length of Visible Light 12h 23m
Length of Day
11h 25m
Waxing Gibbous, 69% of the Moon is Illuminated
Oct 7
Waxing Gibbous
Oct 13
Full
Oct 21
Last Quarter
Oct 27
New
Nov 4
First Quarter

Hourly Weather History & Observations

Time (EDT) Temp. Dew Point Humidity Pressure Visibility Wind Dir Wind Speed Gust Speed Precip Events Conditions
12:53 AM 57.0 °F 54.0 °F 89% 30.05 in 10.0 mi Calm Calm - N/A   Mostly Cloudy
1:53 AM 55.9 °F 54.0 °F 93% 30.04 in 10.0 mi South 4.6 mph - N/A   Mostly Cloudy
2:53 AM 57.9 °F 55.9 °F 93% 30.03 in 10.0 mi Calm Calm - N/A   Overcast
3:53 AM 57.0 °F 55.0 °F 93% 30.03 in 10.0 mi Calm Calm - N/A   Overcast
4:53 AM 59.0 °F 55.9 °F 90% 30.03 in 8.0 mi Calm Calm - 0.01 in Rain Rain
5:40 AM 57.9 °F 55.9 °F 93% 30.03 in 6.0 mi North 5.8 mph - 0.04 in Rain Heavy Rain
5:53 AM 57.9 °F 57.0 °F 97% 30.05 in 9.0 mi Calm Calm - 0.07 in Rain Light Rain
6:53 AM 57.0 °F 55.9 °F 96% 30.06 in 5.0 mi Calm Calm - 0.08 in Rain Rain
7:32 AM 57.0 °F 55.9 °F 96% 30.07 in 3.0 mi Calm Calm - 0.07 in Rain Rain
7:37 AM 57.9 °F 57.0 °F 97% 30.07 in 2.5 mi Calm Calm - 0.09 in Rain Rain
7:53 AM 57.9 °F 57.0 °F 97% 30.07 in 3.0 mi North 6.9 mph - 0.13 in Rain Rain
8:17 AM 57.0 °F 55.0 °F 93% 30.07 in 4.0 mi NNE 6.9 mph - 0.05 in Rain Rain
8:53 AM 55.9 °F 54.0 °F 93% 30.08 in 6.0 mi NNE 8.1 mph - 0.12 in Rain Rain
9:38 AM 54.0 °F 53.1 °F 97% 30.09 in 4.0 mi NNE 3.5 mph - 0.06 in Rain Rain
9:53 AM 54.0 °F 53.1 °F 97% 30.08 in 4.0 mi Calm Calm - 0.09 in Rain Rain
10:08 AM 54.0 °F 53.1 °F 97% 30.08 in 5.0 mi Calm Calm - 0.03 in Rain Rain
10:27 AM 55.0 °F 53.1 °F 93% 30.09 in 10.0 mi SSE 3.5 mph - 0.04 in Rain Light Rain
10:53 AM 55.0 °F 53.1 °F 93% 30.08 in 10.0 mi South 6.9 mph - 0.05 in Rain Light Rain
11:53 AM 55.0 °F 53.1 °F 93% 30.09 in 10.0 mi SE 3.5 mph - 0.03 in Rain Light Rain
12:46 PM 55.0 °F 53.1 °F 93% 30.08 in 10.0 mi South 3.5 mph - 0.02 in Rain Light Rain
12:53 PM 55.0 °F 53.1 °F 93% 30.08 in 9.0 mi SSE 3.5 mph - 0.02 in Rain Light Rain
1:53 PM 55.9 °F 54.0 °F 93% 30.05 in 10.0 mi SSE 4.6 mph - 0.02 in Rain Light Rain
2:53 PM 57.0 °F 55.0 °F 93% 30.05 in 10.0 mi Calm Calm - 0.00 in   Overcast
3:53 PM 57.9 °F 55.9 °F 93% 30.04 in 10.0 mi SE 4.6 mph - N/A   Partly Cloudy
4:53 PM 57.9 °F 55.9 °F 93% 30.05 in 10.0 mi Calm Calm - N/A   Clear
5:53 PM 57.0 °F 55.0 °F 93% 30.05 in 10.0 mi SSE 4.6 mph - N/A   Clear
6:53 PM 55.9 °F 54.0 °F 93% 30.06 in 10.0 mi Calm Calm - N/A   Clear
7:43 PM 55.0 °F 53.1 °F 93% 30.07 in 1.5 mi Calm Calm - N/A   Clear
7:46 PM 54.0 °F 53.1 °F 97% 30.07 in 1.0 mi Calm Calm - N/A   Mist
7:53 PM 54.0 °F 53.1 °F 97% 30.07 in 1.0 mi Calm Calm - N/A   Mist
8:00 PM 55.0 °F 53.1 °F 93% 30.07 in 1.8 mi Calm Calm - N/A   Clear
8:09 PM 54.0 °F 53.1 °F 97% 30.08 in 1.0 mi Calm Calm - N/A   Mist
8:17 PM 54.0 °F 53.1 °F 97% 30.08 in 2.0 mi Calm Calm - N/A   Clear
8:25 PM 54.0 °F 53.1 °F 97% 30.08 in 5.0 mi Calm Calm - N/A   Clear
8:53 PM 54.0 °F 52.0 °F 93% 30.09 in 2.5 mi Calm Calm - N/A   Clear
9:01 PM 54.0 °F 52.0 °F 93% 30.08 in 10.0 mi Calm Calm - N/A   Clear
9:53 PM 52.0 °F 51.1 °F 97% 30.11 in 10.0 mi Calm Calm - N/A   Clear
10:53 PM 54.0 °F 51.1 °F 90% 30.13 in 10.0 mi South 3.5 mph - N/A   Clear
11:53 PM 53.1 °F 51.1 °F 93% 30.13 in 10.0 mi Calm Calm - N/A   Clear